GFSFLT1_2pvu_pres_159.txt.gz
Presure
168 180 167 182 175 181 177 181 178 182 177 175 179 177 180 178 175 174 175 182 180 183 178 179 179 184 194 192 201 207 213 212
180 154 167 187 188 183 173 171 180 172 182 176 175 187 181 173 172 186 189 190 182 186 186 183 177 194 206 199 206 216 215 217
172 167 184 177 187 169 185 181 180 182 181 181 180 172 174 182 179 183 188 182 175 180 181 183 210 196 214 214 221 132 245 233
173 173 185 172 184 182 181 186 178 180 181 182 186 178 183 180 191 188 174 177 184 177 181 182 201 220 219 226 242 240 282 299
186 171 173 180 170 184 189 183 179 189 193 180 187 182 180 181 184 184 178 180 186 183 190 211 216 207 234 222 222 281 297 357
124 182 177 171 178 181 184 172 186 174 183 184 183 170 180 179 184 181 182 181 182 193 197 241 216 246 230 258 211 313 336 363
170 182 174 175 190 191 189 171 179 186 183 183 170 184 173 187 183 183 188 187 190 215 244 218 228 238 239 273 298 287 365 315
173 177 182 186 178 177 177 180 184 181 181 184 183 179 181 186 179 190 182 192 219 235 222 228 220 255 269 292 296 347 330 296
179 179 166 173 182 180 186 182 179 175 183 178 184 171 182 178 194 187 216 227 226 223 233 238 253 269 300 292 342 344 306 282
181 181 179 173 180 182 182 178 169 184 174 181 179 176 181 205 182 220 224 226 228 234 248 252 268 264 296 324 328 338 286 277
181 177 174 172 180 179 180 183 180 180 178 179 182 190 210 227 229 218 219 234 235 252 250 246 293 291 312 335 309 324 278 269
182 180 177 173 180 186 175 172 173 182 180 181 230 224 125 141 223 221 227 231 248 239 251 282 297 283 338 315 294 308 275 249
176 152 178 179 186 179 181 184 98 185 217 214 207 198 214 225 228 216 232 245 236 247 282 307 319 345 323 301 281 299 274 253
179 178 179 179 181 176 182 217 211 205 232 89 216 226 216 237 221 208 239 259 251 274 291 298 324 329 307 290 272 284 267 256
179 183 193 196 203 222 217 220 216 216 218 217 216 213 215 224 222 253 246 257 266 292 309 315 329 311 291 283 266 283 265 252
210 203 203 225 217 218 211 203 218 215 216 218 211 216 225 224 244 258 283 286 284 322 321 323 317 297 282 277 266 281 264 249
197 208 219 207 205 210 212 205 219 215 215 197 218 224 213 232 278 266 302 295 323 322 304 321 296 282 278 269 267 278 263 247
214 207 203 205 207 205 205 218 211 199 206 225 259 251 239 282 285 288 298 295 319 299 330 304 280 278 273 265 267 280 264 249
203 201 202 198 205 210 205 205 200 234 251 240 236 262 286 282 289 295 326 311 317 332 308 287 274 266 265 288 290 282 263 253

GFSFLT1_2pvu_pres_162.txt.gz
Presure
170 187 177 163 168 164 181 174 144 175 181 170 180 190 181 180 185 191 190 175 180 181 182 174 174 185 193 180 191 194 188 189
161 184 181 154 171 180 174 159 180 178 168 178 179 178 190 192 175 177 184 185 185 183 188 182 190 190 191 182 193 189 194 194
164 189 171 189 184 168 165 181 178 167 173 180 183 193 188 170 183 183 181 182 181 191 184 184 185 190 190 197 206 204 251 233
174 182 183 179 168 189 182 173 166 172 177 182 178 180 168 179 182 181 178 189 190 182 186 185 187 183 205 236 198 225 260 247
172 180 186 188 177 179 185 176 165 173 182 169 178 187 181 182 190 177 183 187 184 183 191 182 179 197 213 229 239 245 256 268
186 178 73 180 170 168 182 185 170 183 181 183 183 181 191 185 178 171 182 179 184 184 185 191 192 240 252 239 226 212 265 273
181 185 180 183 182 184 178 183 185 184 186 179 186 180 177 182 184 184 182 181 190 191 181 191 222 204 224 251 251 253 264 309
173 178 170 179 180 190 180 181 186 180 181 180 184 172 180 178 186 174 189 183 187 190 193 240 242 235 231 253 232 271 282 319
176 180 179 188 179 179 184 171 180 177 179 179 180 180 183 183 189 184 182 191 183 215 231 228 236 243 245 259 273 276 317 285
184 176 170 169 185 173 171 185 173 180 179 179 184 175 183 180 184 182 192 190 231 196 221 218 245 240 241 262 288 310 330 346
187 184 187 172 173 181 181 183 185 180 177 179 185 181 184 187 189 185 194 208 243 216 227 225 233 247 239 280 284 292 356 323
183 188 183 179 179 174 115 180 180 181 184 182 181 154 176 193 183 120 225 217 226 229 219 237 248 240 283 311 293 354 334 305
180 176 169 181 176 184 182 182 182 179 183 188 187 184 191 198 219 212 224 219 233 217 236 242 252 272 312 322 323 339 314 290
190 188 183 184 187 188 183 184 185 196 185 191 227 212 197 189 223 228 222 228 217 237 233 268 270 305 325 323 338 318 294 281
224 205 209 200 198 196 193 193 194 184 200 216 213 197 213 219 226 217 212 219 231 252 269 281 283 334 316 334 323 301 282 278
212 202 228 206 193 190 223 198 210 199 209 190 192 217 212 223 204 217 227 221 248 270 299 294 339 324 318 329 302 283 280 269
209 210 212 213 217 227 205 209 204 202 216 214 213 206 221 208 215 222 218 264 291 283 305 334 322 349 333 309 285 278 273 268
210 207 212 204 186 206 206 200 212 202 209 200 203 223 212 230 224 234 269 285 263 302 329 343 344 325 306 290 278 268 270 274
210 217 213 215 201 199 207 207 214 202 201 205 211 222 225 219 244 274 270 281 302 309 325 319 317 300 291 276 269 267 263 298

GFSFLT1_2pvu_pres_165.txt.gz
Presure
178 176 172 185 185 163 188 168 184 178 171 178 178 180 169 180 167 180 175 182 172 172 183 181 182 184 184 190 188 187 191 199
134 145 180 181 173 185 172 169 171 171 176 150 185 168 165 176 182 164 175 180 193 177 189 189 184 186 185 189 183 190 201 186
135 182 190 171 181 184 190 190 183 179 159 172 158 181 177 172 183 171 181 180 176 192 182 180 189 189 193 185 192 190 192 198
182 190 179 185 184 179 170 169 172 180 182 172 176 182 181 169 179 179 180 179 179 184 174 182 186 183 193 191 191 193 193 211
189 180 183 188 178 175 174 179 182 173 168 177 168 178 188 172 183 169 180 180 187 180 185 186 174 191 183 198 219 197 195 212
147 184 189 170 177 176 176 187 175 176 164 176 179 185 177 164 181 186 182 184 179 190 175 185 184 178 198 181 202 190 215 249
188 194 185 182 184 177 184 182 177 175 169 177 173 182 177 178 179 176 189 180 181 184 186 181 192 193 194 188 195 248 242 242
190 194 162 161 190 181 178 181 182 186 187 172 169 175 175 179 189 188 173 186 184 185 173 187 184 190 194 192 203 243 241 263
188 188 190 185 181 184 186 175 172 177 179 171 182 176 186 184 180 188 186 175 187 185 183 189 195 180 196 231 197 203 252 277
192 188 192 186 177 182 186 184 183 180 175 184 185 178 182 179 186 184 184 184 189 193 192 213 246 245 224 232 242 231 199 289
190 190 187 187 186 183 184 183 182 184 184 174 177 185 181 187 188 192 175 194 183 239 210 200 217 206 238 228 222 226 285 320
196 193 192 191 184 185 186 187 186 187 187 182 183 184 187 190 193 195 194 190 211 155 194 211 211 190 225 226 247 281 314 345
179 199 197 195 190 189 189 188 185 183 181 183 185 187 193 196 195 176 207 210 90 219 201 228 201 226 217 189 283 304 357 335
183 187 183 199 197 193 190 189 190 190 190 193 194 201 204 201 203 219 206 172 202 195 224 212 205 224 240 290 322 351 341 345
189 190 193 190 184 196 206 205 201 203 164 231 207 189 232 211 217 199 194 191 226 213 207 226 220 242 270 314 358 370 351 329
202 194 196 202 200 189 200 205 195 184 185 199 207 214 184 217 206 197 199 235 215 225 220 195 231 281 312 323 356 339 326 309
216 210 207 208 199 202 205 209 185 183 194 210 211 217 217 200 176 214 236 215 222 213 228 246 281 317 311 343 327 319 309 289
219 220 217 215 214 219 212 210 209 205 208 211 207 169 217 217 216 237 221 217 213 230 244 279 301 314 330 322 312 305 296 279
227 222 219 224 212 214 180 215 213 210 211 176 216 219 229 227 241 230 219 213 241 254 258 317 300 327 313 309 302 291 286 276

GFSFLT1_2pvu_pres_171.txt.gz
Presure
176 145 176 151 161 162 174 172 215 212 167 192 185 172 164 191 184 164 166 164 179 179 178 161 173 179 170 179 184 164 180 165
157 159 164 133 154 146 184 174 150 205 211 202 210 200 143 142 145 146 156 179 180 172 181 164 174 169 166 180 186 173 171 170
183 177 172 174 155 179 178 192 220 201 188 210 160 199 196 188 184 169 172 176 152 148 175 173 165 167 183 189 175 179 177 196
184 167 194 176 173 184 153 193 210 225 214 201 161 196 195 184 185 179 186 168 185 184 177 181 175 185 181 186 166 190 180 190
175 192 188 202 211 213 203 219 202 222 188 202 199 199 192 188 182 189 192 186 184 151 174 180 181 180 181 177 177 182 191 182
196 217 224 179 208 205 201 199 223 225 205 194 195 194 191 190 186 183 190 192 192 186 179 193 187 171 185 176 188 192 181 192
198 85 126 130 201 200 202 217 221 226 207 201 195 188 191 191 190 186 181 186 184 183 185 179 183 188 181 188 192 187 193 198
79 219 201 206 206 208 200 200 222 219 203 199 194 190 187 191 189 182 183 189 190 190 184 175 191 189 186 201 188 188 194 191
214 228 193 210 212 202 209 200 220 214 214 202 190 185 184 184 189 186 187 185 187 190 192 193 192 183 193 192 190 198 202 191
233 214 209 201 219 213 205 222 207 211 203 200 196 192 192 190 190 191 188 190 187 186 188 193 197 193 191 190 199 200 209 228
222 191 202 208 194 224 237 215 209 183 211 202 199 193 192 188 184 187 186 189 176 176 185 183 185 186 185 201 197 140 192 195
230 232 220 224 184 203 237 228 208 191 183 199 205 197 193 191 192 190 190 178 187 171 193 200 204 190 209 192 196 204 210 208
230 207 229 263 194 191 194 204 192 199 196 184 178 203 199 202 199 196 182 172 183 183 176 192 191 204 210 209 208 220 222 215
221 233 212 240 243 192 205 185 188 186 189 191 186 182 180 176 172 173 174 184 178 184 190 197 192 194 201 208 209 213 225 211
214 216 226 224 214 228 245 205 198 184 183 195 194 190 190 186 178 174 192 192 193 186 198 203 199 208 222 218 212 217 224 218
211 237 229 230 233 249 204 219 212 184 184 199 193 198 198 176 200 186 186 191 202 196 206 212 210 214 217 216 213 223 222 226
230 229 229 234 231 225 221 216 226 244 226 208 195 209 210 200 210 209 206 203 191 214 210 217 218 222 214 219 219 228 220 240
237 230 235 237 234 223 221 220 225 233 232 222 225 224 217 207 209 212 218 204 205 214 218 215 217 216 215 222 219 230 236 246
250 244 241 237 237 232 233 231 241 241 237 230 224 215 212 216 216 217 214 214 213 214 214 219 215 222 218 235 229 229 247 256

GFSFLT1_2pvu_pres_174.txt.gz
Presure
191 175 176 186 175 166 173 175 180 159 179 174 164 162 214 217 172 195 187 195 134 193 155 167 173 139 175 156 158 175 163 152
196 191 188 180 159 169 177 167 163 169 166 135 132 154 166 221 207 209 201 204 193 191 181 184 172 172 183 173 171 156 173 185
177 186 180 153 182 178 166 175 185 135 177 143 197 195 168 199 212 211 198 200 196 192 184 183 184 173 150 187 180 183 183 176
183 183 191 168 171 170 166 179 191 189 189 199 191 168 177 233 210 210 208 202 193 192 186 182 179 185 186 183 190 191 176 177
202 126 200 181 172 102 176 172 167 194 222 152 176 162 208 228 217 196 201 195 194 193 190 184 184 188 191 190 190 190 180 183
187 213 210 190 184 182 174 86 143 147 214 203 207 202 204 228 217 204 200 196 194 192 189 190 186 184 184 187 183 184 184 180
215 178 220 210 176 124 187 180 218 203 212 197 210 200 206 215 219 209 203 199 195 192 190 190 189 182 189 183 185 192 197 193
81 107 223 217 205 177 209 221 197 212 201 188 202 206 202 221 216 213 204 197 196 185 184 185 188 187 184 190 195 195 195 196
97 229 236 100 139 215 200 192 202 207 187 191 200 214 207 224 222 213 202 197 193 193 191 185 192 192 186 193 193 183 201 201
155 226 210 233 211 199 228 213 216 210 189 191 201 220 215 218 206 210 211 206 201 201 194 192 189 192 195 196 187 196 182 195
265 229 269 249 238 223 210 211 203 206 214 217 184 202 212 210 202 200 199 200 201 198 196 195 195 197 194 191 184 190 202 189
237 275 251 245 237 203 213 226 204 219 218 197 197 197 215 212 196 189 189 196 199 194 191 197 194 198 182 178 190 180 191 201
260 255 217 209 221 228 210 205 218 211 198 226 246 201 190 200 207 180 182 183 181 202 197 196 187 182 179 195 190 195 201 204
254 259 227 207 223 252 197 240 233 239 191 231 234 202 197 190 182 182 181 182 181 176 184 170 177 189 184 193 195 179 195 192
226 205 227 221 213 220 247 223 209 212 196 217 207 214 215 206 194 193 185 180 178 188 195 191 195 204 214 206 209 208 218 220
239 237 214 225 219 222 241 231 201 207 205 226 213 220 210 235 218 209 201 189 184 196 188 188 220 207 221 214 217 216 217 221
224 227 214 211 218 221 222 224 212 221 230 223 218 244 212 249 213 204 210 204 196 209 221 211 209 213 215 214 213 233 214 215
224 213 216 223 223 223 233 236 219 231 220 224 222 224 222 227 211 212 213 236 223 217 220 217 223 223 223 222 224 225 213 214
231 224 223 221 224 234 269 257 248 229 220 221 221 224 223 211 209 212 214 221 221 224 220 212 213 214 215 218 219 221 216 216